Regional Weather Roundup
Issued by NWS

Home | Current Version | Previous Version | Graphics & Text | Print | Product List | Glossary On
Versions: 1 2 3 4 5 6 7 8 9 10 11 12 13 14 15 16 17 18 19 20 21 22 23 24 25 26 27 28 29 30 31 32 33 34 35 36 37 38 39 40 41 42 43 44 45 46 47 48 49 50
000
ASUS43 KIND 271709
RWRIN

WEATHER ROUNDUP FOR INDIANA
NATIONAL WEATHER SERVICE INDIANAPOLIS IN
100 PM EDT THU APR 27 2017

NOTE: "FAIR" INDICATES FEW OR NO CLOUDS BELOW 12,000 FEET WITH NO
SIGNIFICANT WEATHER AND/OR OBSTRUCTIONS TO VISIBILITY.

* - STATION DOES NOT REPORT WEATHER SUCH AS PRECIPITATION OR FOG.

+ - STATION NOT QUALITY CONTROLLED BY THE NATIONAL WEATHER SERVICE.
    USE DATA WITH CAUTION...ESPECIALLY DEWPOINT AND RELATIVE
    HUMIDITY OBSERVATIONS.

INZ001>003-010>013-019-020-271800-
NORTHWEST INDIANA

CITY           SKY/WX    TMP DP  RH WIND       PRES   REMARKS
GARY /AIRPORT/ CLOUDY    48  39  71 W16G32    29.61R
KNOX *+        CLOUDY    50  28  43 SW21      29.61R
LA PORTE +     CLOUDY    49  42  76 SW20G28   29.60R
VALPARAISO     CLOUDY    49  42  77 SW24G33   29.61R

$$

LMZ046-743>745-271800-
SOUTHERN LAKE MICHIGAN

STATION/POSITION TIME  TEMP    WIND        PRES    WAVE
                       AIR SEA DIR/SP/G            HT
                 (UTC) (F)     (DEG/KT/KT) (MB)    (FT)
BURNS HARBOR     1640   49     240/ 20/ 25 1002.4R
MICHIGAN CITY    1640   47     230/ 25/ 28   N/A
5NW MICH CITY    1700   47 48                N/A     4

$$

INZ004-005-014>016-021>024-271800-
NORTH CENTRAL INDIANA

CITY           SKY/WX    TMP DP  RH WIND       PRES   REMARKS
ELKHART        CLOUDY    54  43  66 SW15      29.58R
GOSHEN         CLOUDY    54  43  66 SW16G26   29.59R
LOGANSPORT +   CLOUDY    50  43  76 SW21G30   29.65R
PERU/GRISSOM   CLOUDY    52  46  82 W20       29.63R
ROCHESTER +    CLOUDY    52  43  71 W15G24    29.63R
SOUTH BEND     NOT AVBL
WARSAW +       CLOUDY    52  43  71 SW9       29.61R

$$

INZ006>009-017-018-025>027-271800-
NORTHEAST INDIANA

CITY           SKY/WX    TMP DP  RH WIND       PRES   REMARKS
ANGOLA *+      MOSUNNY   59  50  72 W20       29.56R
AUBURN +       PTSUNNY   59  46  63 W15G25    29.59R
FORT WAYNE     NOT AVBL
HUNTINGTON +   CLOUDY    54  47  76 W20G26    29.62R

$$

INZ028-029-035-036-043>045-051>053-271800-
WEST CENTRAL INDIANA

CITY           SKY/WX    TMP DP  RH WIND       PRES   REMARKS
LAFAYETTE      NOT AVBL
TERRE HAUTE    CLOUDY    52  43  71 W14       29.71R

$$

INZ030>032-037>040-046>048-054>057-064-065-271800-
CENTRAL INDIANA

CITY           SKY/WX    TMP DP  RH WIND       PRES   REMARKS
ANDERSON       CLOUDY    57  48  72 W12G17    29.66
CP ATTERBURY + CLOUDY    59  46  63 W14       29.69R
COLUMBUS       CLOUDY    59  45  58 W14       29.69S
FISHERS *+     CLOUDY    54  48  82 W14G21    29.67R
FRANKFORT +    CLOUDY    52  46  79 W21G26    29.68R
GREENWOOD *+   CLOUDY    57  46  65 W8G21     29.68R
INDIANAPOLIS   NOT AVBL
-EAGLE CREEK   CLOUDY    54  44  69 W10G18    29.67R
MARION +       CLOUDY    52  46  82 W21       29.65R
MT COMFORT *+  CLOUDY    55  46  71 W17       29.67S
SHELBYVILLE    CLOUDY    60  46  59 W17       29.67R
ZIONSVILLE +   CLOUDY    50  45  82 W17       29.69R

$$

INZ033-034-041-042-049-050-058-059-271800-
EAST CENTRAL INDIANA

CITY           SKY/WX    TMP DP  RH WIND       PRES   REMARKS
MUNCIE         CLOUDY    57  47  69 W18G29    29.64R
RICHMOND +     CLOUDY    61  54  77 W20G25    29.64R

$$

INZ060-061-067>069-081>083-085>088-271800-
SOUTHWEST INDIANA

CITY           SKY/WX    TMP DP  RH WIND       PRES   REMARKS
EVANSVILLE     NOT AVBL
WASHINGTON +   CLOUDY    55  45  70 W16       29.74R

$$

INZ062-063-066-070>080-084-089>092-271800-
SOUTH CENTRAL AND SOUTHEAST INDIANA

CITY           SKY/WX    TMP DP  RH WIND       PRES   REMARKS
BEDFORD +      CLOUDY    55  45  67 SW10G18   29.72R
BLOOMINGTON    CLOUDY    55  44  66 W13G23    29.70R
NORTH VERNON + CLOUDY    55  48  76 SW13G22   29.70R
SEYMOUR +      CLOUDY    59  48  67 W20       29.71R

$$




USA.gov is the U.S. government's official web portal to all federal, state and local government web resources and services.